M I D A S
Marine Information and Data Acquisition System
Tripno 2157 of the Zeeleeuw from 2011-08-03 05:13:21 to 2011-08-03 14:39:46
Back to CruiseResearch ActivitiesStationsMapUnderway DataData graphs

EquipmentUnitsComments
TimeDGPSUTC
LatitudeDGPSDM.mWGS84
LongitudeDGPSDM.mWGS84
SpeedMeteo Stationm/sRelative wind speed
DirectionMeteo StationdegRelative wind direction
TemperatureMeteo Stationdeg CelciusAir temperature
PressureMeteo StationPaAtmospheric pressure
HumidityMeteo Station%Relative humidity
Missing or incorrect values are displayed as -999
Metereological data collected by the RV Zeeleeuw from 2011-08-03 05:09:19 to 2011-08-03 14:46:54
                                                                                    Next 1000 lines
Time Latitude Longitude Speed Direction Temperature Pressure Humidity
2011-08-03 05:09:28 51°13.61 2°56.062 -999 305 19.8 101290 44
2011-08-03 05:09:34 51°13.61 2°56.059 -999 255 19.8 101290 44
2011-08-03 05:09:39 51°13.611 2°56.056 -999 305 19.8 101290 44
2011-08-03 05:09:44 51°13.612 2°56.052 -999 246 19.8 101300 44
2011-08-03 05:09:49 51°13.614 2°56.047 -999 305 19.8 101300 44
2011-08-03 05:09:55 51°13.616 2°56.04 -999 268 19.8 101290 44
2011-08-03 05:10:02 51°13.618 2°56.031 -999 305 19.8 101290 44
2011-08-03 05:10:07 51°13.62 2°56.023 -999 269 19.8 101290 44
2011-08-03 05:10:12 51°13.623 2°56.015 -999 56 19.8 101290 44
2011-08-03 05:10:17 51°13.625 2°56.007 -999 26 19.8 101300 44
2011-08-03 05:10:22 51°13.628 2°55.998 -999 55 19.8 101300 44
2011-08-03 05:10:27 51°13.63 2°55.988 -999 25 19.8 101300 44
2011-08-03 05:10:32 51°13.633 2°55.979 -999 56 19.8 101300 44
2011-08-03 05:10:37 51°13.636 2°55.969 -999 25 19.8 101300 44
2011-08-03 05:10:42 51°13.639 2°55.959 -999 55 19.8 101300 44
2011-08-03 05:10:47 51°13.642 2°55.949 -999 269 19.8 101300 44
2011-08-03 05:10:53 51°13.646 2°55.936 -999 55 19.8 101300 44
2011-08-03 05:10:58 51°13.649 2°55.926 -999 268 19.8 101300 44
2011-08-03 05:11:02 51°13.652 2°55.917 -999 56 19.8 101300 44
2011-08-03 05:11:08 51°13.657 2°55.904 -999 25 19.8 101300 44
2011-08-03 05:11:12 51°13.66 2°55.895 -999 56 19.8 101300 44
2011-08-03 05:11:17 51°13.664 2°55.884 -999 25 19.8 101300 43
2011-08-03 05:11:22 51°13.668 2°55.873 -999 55 19.8 101300 43
2011-08-03 05:11:28 51°13.673 2°55.86 -999 25 19.8 101300 44
2011-08-03 05:11:33 51°13.677 2°55.85 -999 55 19.8 101300 44
2011-08-03 05:11:37 51°13.681 2°55.841 -999 25 19.7 101300 44
2011-08-03 05:11:42 51°13.685 2°55.83 -999 56 19.7 101300 44
2011-08-03 05:11:48 51°13.691 2°55.817 -999 25 19.8 101300 44
2011-08-03 05:11:53 51°13.696 2°55.806 -999 55 19.8 101300 44
2011-08-03 05:11:58 51°13.701 2°55.795 -999 25 19.8 101310 44
2011-08-03 05:12:02 51°13.705 2°55.786 -999 55 19.8 101310 44
2011-08-03 05:12:08 51°13.712 2°55.774 -999 25 19.8 101310 44
2011-08-03 05:12:13 51°13.717 2°55.764 -999 55 19.8 101310 44
2011-08-03 05:12:18 51°13.723 2°55.753 -999 25 19.8 101310 44
2011-08-03 05:12:22 51°13.728 2°55.745 -999 55 19.8 101310 44
2011-08-03 05:12:27 51°13.734 2°55.736 -999 25 19.8 101310 44
2011-08-03 05:12:33 51°13.741 2°55.725 -999 55 19.8 101310 44
2011-08-03 05:12:37 51°13.746 2°55.717 -999 25 19.9 101310 46
2011-08-03 05:12:42 51°13.753 2°55.708 -999 55 19.9 101310 46
2011-08-03 05:12:47 51°13.759 2°55.7 -999 25 20 101310 47
2011-08-03 05:12:52 51°13.766 2°55.692 -999 55 20 101310 47
2011-08-03 05:12:58 51°13.774 2°55.682 -999 25 20.2 101310 48
2011-08-03 05:13:03 51°13.782 2°55.674 -999 56 20.2 101310 48
2011-08-03 05:13:07 51°13.788 2°55.669 -999 25 20.4 101310 48
2011-08-03 05:13:13 51°13.797 2°55.661 -999 55 20.4 101310 48
2011-08-03 05:13:17 51°13.802 2°55.656 -999 25 20.5 101310 48
2011-08-03 05:13:23 51°13.811 2°55.649 -999 55 20.5 101310 48
2011-08-03 05:13:27 51°13.817 2°55.645 -999 25 20.6 101310 48
2011-08-03 05:13:32 51°13.825 2°55.641 -999 56 20.6 101310 48
2011-08-03 05:13:37 51°13.832 2°55.637 -999 25 20.7 101310 48
2011-08-03 05:13:43 51°13.841 2°55.632 -999 55 20.7 101310 48
2011-08-03 05:13:48 51°13.848 2°55.629 -999 25 20.8 101310 48
2011-08-03 05:13:52 51°13.854 2°55.627 -999 56 20.8 101310 48
2011-08-03 05:13:57 51°13.861 2°55.625 -999 25 20.8 101310 46
2011-08-03 05:14:03 51°13.869 2°55.623 -999 55 20.8 101310 46
2011-08-03 05:14:08 51°13.876 2°55.621 -999 25 20.9 101310 47
2011-08-03 05:14:13 51°13.883 2°55.62 -999 55 20.9 101310 47
2011-08-03 05:14:18 51°13.89 2°55.62 -999 25 20.9 101310 47
2011-08-03 05:14:23 51°13.896 2°55.62 -999 55 20.9 101310 47
2011-08-03 05:14:28 51°13.902 2°55.621 -999 25 20.9 101310 47
2011-08-03 05:14:32 51°13.907 2°55.622 -999 55 20.9 101310 47
2011-08-03 05:14:37 51°13.913 2°55.623 -999 25 20.9 101310 46
2011-08-03 05:14:42 51°13.919 2°55.625 -999 56 20.9 101310 46
2011-08-03 05:14:48 51°13.926 2°55.628 -999 25 20.9 101310 46
2011-08-03 05:14:53 51°13.932 2°55.63 -999 55 20.9 101310 46
2011-08-03 05:14:57 51°13.936 2°55.632 -999 25 20.8 101310 46
2011-08-03 05:15:03 51°13.942 2°55.635 -999 45 20.8 101310 46
2011-08-03 05:15:08 51°13.947 2°55.638 -999 43 20.8 101310 45
2011-08-03 05:15:12 51°13.95 2°55.639 -999 55 20.8 101310 45
2011-08-03 05:15:17 51°13.954 2°55.642 -999 25 20.7 101310 45
2011-08-03 05:15:22 51°13.958 2°55.644 -999 42 20.7 101310 45
2011-08-03 05:15:27 51°13.961 2°55.646 2.9 37 20.7 101310 46
2011-08-03 05:15:32 51°13.963 2°55.647 2.2 44 20.7 101310 46
2011-08-03 05:15:37 51°13.965 2°55.649 1.5 35 20.6 101310 46
2011-08-03 05:15:42 51°13.966 2°55.649 0.1 40 20.6 101310 46
2011-08-03 05:15:47 51°13.967 2°55.65 0.1 37 20.5 101310 46
2011-08-03 05:15:52 51°13.967 2°55.65 -999 34 20.5 101310 46
2011-08-03 05:15:58 51°13.968 2°55.649 -999 33 20.4 101310 46
2011-08-03 05:16:02 51°13.968 2°55.648 -999 27 20.4 101310 46
2011-08-03 05:16:07 51°13.968 2°55.646 -999 26 20.4 101310 46
2011-08-03 05:16:12 51°13.968 2°55.643 -999 21 20.4 101310 46
2011-08-03 05:16:17 51°13.968 2°55.641 -999 20 20.3 101310 46
2011-08-03 05:16:22 51°13.968 2°55.637 -999 13 20.3 101310 46
2011-08-03 05:16:27 51°13.968 2°55.633 -999 9 20.3 101310 46
2011-08-03 05:16:33 51°13.968 2°55.628 -999 359 20.3 101310 46
2011-08-03 05:16:38 51°13.969 2°55.623 -999 358 20.2 101310 45
2011-08-03 05:16:43 51°13.97 2°55.617 -999 355 20.2 101310 45
2011-08-03 05:16:47 51°13.971 2°55.613 -999 352 20.2 101310 46
2011-08-03 05:16:52 51°13.973 2°55.607 -999 353 20.2 101310 46
2011-08-03 05:16:57 51°13.976 2°55.601 -999 349 20.1 101310 47
2011-08-03 05:17:01 51°13.978 2°55.596 -999 345 20.1 101310 47
2011-08-03 05:17:06 51°13.981 2°55.59 -999 346 20.1 101310 47
2011-08-03 05:17:10 51°13.984 2°55.585 -999 349 20.1 101310 47
2011-08-03 05:17:15 51°13.988 2°55.579 -999 347 20 101310 47
2011-08-03 05:17:20 51°13.993 2°55.572 -999 345 20 101310 47
2011-08-03 05:17:25 51°13.998 2°55.565 -999 352 20 101310 47
2011-08-03 05:17:30 51°14.003 2°55.558 -999 351 20 101310 47
2011-08-03 05:17:36 51°14.01 2°55.549 -999 348 20 101310 47
2011-08-03 05:17:41 51°14.016 2°55.541 -999 347 20 101310 47
2011-08-03 05:17:46 51°14.022 2°55.533 -999 348 19.9 101310 47
2011-08-03 05:17:51 51°14.029 2°55.525 -999 349 19.9 101310 47
2011-08-03 05:17:55 51°14.035 2°55.518 -999 350 19.8 101310 47
2011-08-03 05:18:00 51°14.043 2°55.51 -999 351 19.8 101310 47
2011-08-03 05:18:06 51°14.052 2°55.5 -999 346 19.8 101310 47
2011-08-03 05:18:11 51°14.06 2°55.491 -999 351 19.8 101310 47
2011-08-03 05:18:15 51°14.066 2°55.485 -999 351 19.7 101310 47
2011-08-03 05:18:20 51°14.075 2°55.476 -999 352 19.7 101310 47
2011-08-03 05:18:25 51°14.083 2°55.468 -999 350 19.7 101310 47
2011-08-03 05:18:30 51°14.092 2°55.459 -999 359 19.7 101310 47
2011-08-03 05:18:35 51°14.101 2°55.451 -999 356 19.7 101310 47
2011-08-03 05:18:39 51°14.108 2°55.444 -999 -999 19.7 101310 47
2011-08-03 05:18:44 51°14.117 2°55.435 -999 359 19.6 101310 47
2011-08-03 05:18:49 51°14.126 2°55.427 -999 349 19.6 101310 47
2011-08-03 05:18:54 51°14.136 2°55.418 -999 350 19.6 101300 47
2011-08-03 05:18:59 51°14.146 2°55.409 -999 348 19.6 101300 47
2011-08-03 05:19:03 51°14.154 2°55.402 -999 345 19.6 101310 47
2011-08-03 05:19:09 51°14.167 2°55.391 -999 348 19.6 101310 47
2011-08-03 05:19:14 51°14.178 2°55.381 -999 347 19.6 101300 46
2011-08-03 05:19:19 51°14.189 2°55.372 -999 348 19.6 101300 46
2011-08-03 05:19:23 51°14.197 2°55.364 -999 346 19.6 101300 47
2011-08-03 05:19:29 51°14.211 2°55.352 -999 343 19.6 101300 47
2011-08-03 05:19:34 51°14.222 2°55.342 -999 347 19.6 101310 48
2011-08-03 05:19:39 51°14.233 2°55.332 -999 345 19.6 101310 48
2011-08-03 05:19:43 51°14.242 2°55.323 -999 348 19.7 101300 48
2011-08-03 05:19:49 51°14.256 2°55.311 -999 348 19.7 101300 48
2011-08-03 05:19:54 51°14.268 2°55.3 -999 350 19.7 101300 48
2011-08-03 05:19:59 51°14.279 2°55.289 -999 348 19.7 101300 48
2011-08-03 05:20:03 51°14.289 2°55.28 -999 349 19.7 101300 48
2011-08-03 05:20:09 51°14.303 2°55.267 -999 347 19.7 101300 48
2011-08-03 05:20:14 51°14.315 2°55.255 -999 350 19.7 101300 48
2011-08-03 05:20:19 51°14.327 2°55.244 -999 350 19.7 101300 48
2011-08-03 05:20:23 51°14.337 2°55.235 -999 350 19.7 101300 48
2011-08-03 05:20:29 51°14.352 2°55.221 -999 350 19.7 101300 48
2011-08-03 05:20:34 51°14.365 2°55.21 -999 350 19.6 101300 48
2011-08-03 05:20:39 51°14.377 2°55.199 -999 348 19.6 101300 48
2011-08-03 05:20:43 51°14.388 2°55.19 -999 349 19.6 101300 48
2011-08-03 05:20:49 51°14.403 2°55.176 -999 349 19.6 101300 48
2011-08-03 05:20:54 51°14.415 2°55.163 -999 347 19.5 101300 48
2011-08-03 05:20:59 51°14.428 2°55.151 -999 347 19.5 101300 48
2011-08-03 05:21:03 51°14.438 2°55.14 -999 346 19.5 101300 48
2011-08-03 05:21:09 51°14.454 2°55.124 -999 348 19.5 101300 48
2011-08-03 05:21:14 51°14.467 2°55.11 -999 348 19.5 101300 48
2011-08-03 05:21:19 51°14.48 2°55.097 -999 348 19.5 101300 48
2011-08-03 05:21:23 51°14.49 2°55.085 -999 347 19.5 101300 48
2011-08-03 05:21:29 51°14.507 2°55.068 -999 347 19.5 101300 48
2011-08-03 05:21:34 51°14.52 2°55.052 -999 347 19.4 101300 48
2011-08-03 05:21:39 51°14.534 2°55.037 -999 347 19.4 101300 48
2011-08-03 05:21:43 51°14.544 2°55.024 -999 348 19.4 101300 48
2011-08-03 05:21:47 51°14.555 2°55.011 -999 347 19.4 101300 48
2011-08-03 05:21:54 51°14.575 2°54.989 -999 347 19.5 101300 47
2011-08-03 05:21:59 51°14.589 2°54.973 -999 348 19.5 101300 47
2011-08-03 05:22:03 51°14.601 2°54.96 -999 348 19.4 101300 48
2011-08-03 05:22:08 51°14.616 2°54.944 -999 347 19.4 101300 48
2011-08-03 05:22:14 51°14.633 2°54.925 -999 346 19.4 101300 48
2011-08-03 05:22:19 51°14.648 2°54.91 -999 346 19.4 101300 48
2011-08-03 05:22:23 51°14.66 2°54.897 -999 346 19.4 101300 48
2011-08-03 05:22:29 51°14.678 2°54.878 -999 346 19.4 101300 48
2011-08-03 05:22:34 51°14.694 2°54.862 -999 346 19.4 101300 48
2011-08-03 05:22:39 51°14.708 2°54.846 -999 281 19.4 101300 48
2011-08-03 05:22:43 51°14.72 2°54.833 -999 345 19.4 101300 48
2011-08-03 05:22:49 51°14.738 2°54.813 -999 345 19.4 101300 48
2011-08-03 05:22:54 51°14.752 2°54.795 -999 344 19.4 101300 48
2011-08-03 05:22:59 51°14.767 2°54.778 -999 344 19.4 101300 48
2011-08-03 05:23:03 51°14.778 2°54.763 -999 343 19.4 101300 48
2011-08-03 05:23:09 51°14.795 2°54.742 -999 341 19.4 101300 48
2011-08-03 05:23:14 51°14.809 2°54.724 -999 343 19.4 101310 48
2011-08-03 05:23:19 51°14.823 2°54.707 -999 340 19.4 101310 48
2011-08-03 05:23:23 51°14.835 2°54.692 -999 343 19.4 101300 48
2011-08-03 05:23:29 51°14.852 2°54.671 -999 341 19.4 101300 48
2011-08-03 05:23:34 51°14.866 2°54.654 -999 346 19.4 101300 48
2011-08-03 05:23:39 51°14.88 2°54.637 -999 281 19.4 101300 48
2011-08-03 05:23:43 51°14.892 2°54.623 -999 344 19.4 101310 48
2011-08-03 05:23:49 51°14.909 2°54.602 -999 342 19.4 101310 48
2011-08-03 05:23:54 51°14.924 2°54.585 -999 340 19.5 101310 49
2011-08-03 05:23:59 51°14.938 2°54.57 -999 339 19.5 101310 49
2011-08-03 05:24:03 51°14.95 2°54.557 -999 337 19.5 101300 49
2011-08-03 05:24:09 51°14.969 2°54.54 -999 336 19.5 101300 49
2011-08-03 05:24:14 51°14.984 2°54.525 -999 338 19.5 101300 49
2011-08-03 05:24:19 51°14.999 2°54.511 -999 337 19.5 101300 49
2011-08-03 05:24:23 51°15.011 2°54.498 -999 336 19.5 101300 49
2011-08-03 05:24:28 51°15.026 2°54.483 -999 337 19.5 101300 49
2011-08-03 05:24:33 51°15.041 2°54.467 -999 335 19.5 101310 47
2011-08-03 05:24:39 51°15.059 2°54.448 -999 281 19.5 101310 47
2011-08-03 05:24:43 51°15.071 2°54.436 -999 337 19.5 101310 49
2011-08-03 05:24:49 51°15.089 2°54.417 -999 337 19.5 101310 49
2011-08-03 05:24:54 51°15.103 2°54.401 -999 336 19.4 101310 49
2011-08-03 05:24:59 51°15.117 2°54.384 -999 335 19.4 101310 49
2011-08-03 05:25:03 51°15.129 2°54.37 8.4 336 19.4 101310 49
2011-08-03 05:25:09 51°15.146 2°54.35 8.1 335 19.4 101310 49
2011-08-03 05:25:14 51°15.16 2°54.333 11.3 334 19.4 101310 49
2011-08-03 05:25:19 51°15.174 2°54.317 9.2 333 19.4 101310 49
2011-08-03 05:25:23 51°15.186 2°54.303 8.3 333 19.4 101310 49
2011-08-03 05:25:29 51°15.203 2°54.283 11.6 332 19.4 101310 49
2011-08-03 05:25:34 51°15.217 2°54.266 10.7 333 19.4 101310 50
2011-08-03 05:25:39 51°15.231 2°54.249 11.2 332 19.4 101310 50
2011-08-03 05:25:43 51°15.243 2°54.236 9.7 332 19.4 101310 49
2011-08-03 05:25:49 51°15.259 2°54.215 9.8 333 19.4 101310 49
2011-08-03 05:25:54 51°15.273 2°54.198 10.6 333 19.4 101310 50
2011-08-03 05:25:59 51°15.288 2°54.181 11.3 333 19.4 101310 50
2011-08-03 05:26:03 51°15.299 2°54.167 9.2 333 19.4 101310 50
2011-08-03 05:26:07 51°15.31 2°54.154 4.9 332 19.4 101310 50
2011-08-03 05:26:14 51°15.33 2°54.13 10.7 333 19.3 101310 50
2011-08-03 05:26:19 51°15.344 2°54.113 10.8 333 19.3 101310 50
2011-08-03 05:26:23 51°15.355 2°54.1 10.8 332 19.3 101310 50
2011-08-03 05:26:28 51°15.37 2°54.083 14.2 333 19.3 101310 50
2011-08-03 05:26:34 51°15.387 2°54.063 12.7 333 19.3 101310 50
2011-08-03 05:26:39 51°15.401 2°54.048 10.6 332 19.3 101310 50
2011-08-03 05:26:43 51°15.413 2°54.035 8.4 334 19.3 101310 50
2011-08-03 05:26:49 51°15.43 2°54.016 12.6 333 19.3 101310 50
2011-08-03 05:26:54 51°15.444 2°53.999 8.7 333 19.2 101300 50
2011-08-03 05:26:59 51°15.459 2°53.983 8.7 334 19.2 101300 50
2011-08-03 05:27:03 51°15.47 2°53.969 10.2 335 19.2 101310 50
2011-08-03 05:27:09 51°15.486 2°53.948 11.8 334 19.2 101310 50
2011-08-03 05:27:14 51°15.499 2°53.93 9.5 336 19.1 101310 48
2011-08-03 05:27:19 51°15.512 2°53.911 11.1 335 19.1 101310 48
2011-08-03 05:27:23 51°15.523 2°53.896 9 336 19.1 101310 49
2011-08-03 05:27:29 51°15.538 2°53.873 11 337 19.1 101310 49
2011-08-03 05:27:34 51°15.551 2°53.854 9.5 337 19.1 101320 50
2011-08-03 05:27:39 51°15.563 2°53.835 12.3 335 19.1 101320 50
2011-08-03 05:27:43 51°15.573 2°53.819 8.6 336 19 101320 50
2011-08-03 05:27:49 51°15.588 2°53.796 4.5 336 19 101320 50
2011-08-03 05:27:54 51°15.601 2°53.777 7.4 337 19 101320 50
2011-08-03 05:27:59 51°15.614 2°53.758 10.2 337 19 101320 50
2011-08-03 05:28:03 51°15.624 2°53.743 10.2 337 19 101320 50
2011-08-03 05:28:09 51°15.64 2°53.72 6.7 338 19 101320 50
2011-08-03 05:28:14 51°15.653 2°53.702 11.5 337 19 101320 50
2011-08-03 05:28:19 51°15.666 2°53.683 8.6 338 19 101320 50
2011-08-03 05:28:23 51°15.676 2°53.668 10.4 338 19 101320 49
2011-08-03 05:28:29 51°15.692 2°53.646 8.9 337 19 101320 49
2011-08-03 05:28:34 51°15.705 2°53.626 11.8 338 19 101320 49
2011-08-03 05:28:39 51°15.718 2°53.609 9.4 337 19 101320 49
2011-08-03 05:28:43 51°15.729 2°53.595 9.4 338 19 101320 50
2011-08-03 05:28:49 51°15.746 2°53.574 8.7 338 19 101320 50
2011-08-03 05:28:54 51°15.76 2°53.557 8.7 338 19 101320 50
2011-08-03 05:28:59 51°15.774 2°53.541 10.2 337 19 101320 50
2011-08-03 05:29:03 51°15.786 2°53.529 8.8 337 19 101320 49
2011-08-03 05:29:09 51°15.804 2°53.512 9.3 336 19 101320 49
2011-08-03 05:29:14 51°15.819 2°53.498 7.9 337 19 101320 49
2011-08-03 05:29:19 51°15.834 2°53.483 9.5 338 19 101320 49
2011-08-03 05:29:23 51°15.847 2°53.473 45.7 337 18.9 101320 50
2011-08-03 05:29:29 51°15.865 2°53.457 8.9 337 18.9 101320 50
2011-08-03 05:29:34 51°15.881 2°53.444 11.8 338 18.9 101320 49
2011-08-03 05:29:39 51°15.897 2°53.431 7.9 337 18.9 101320 49
2011-08-03 05:29:43 51°15.909 2°53.42 11.2 338 18.9 101320 49
2011-08-03 05:29:49 51°15.927 2°53.404 9.9 337 18.9 101320 49
2011-08-03 05:29:54 51°15.943 2°53.39 11.6 336 18.9 101320 47
2011-08-03 05:29:59 51°15.958 2°53.376 10.8 339 18.9 101320 47
2011-08-03 05:30:04 51°15.974 2°53.363 10.5 338 18.9 101320 49
2011-08-03 05:30:09 51°15.989 2°53.349 8.5 339 18.9 101320 49
2011-08-03 05:30:14 51°16.004 2°53.335 8 340 18.9 101320 48
2011-08-03 05:30:19 51°16.019 2°53.32 7.3 341 18.9 101320 48
2011-08-03 05:30:23 51°16.031 2°53.308 7.9 340 18.9 101320 48
2011-08-03 05:30:29 51°16.049 2°53.289 7.5 338 18.9 101320 48
2011-08-03 05:30:34 51°16.064 2°53.274 10.9 339 18.9 101320 47
2011-08-03 05:30:39 51°16.078 2°53.258 9.9 337 18.9 101320 47
2011-08-03 05:30:43 51°16.09 2°53.246 8.5 337 18.9 101320 48
2011-08-03 05:30:49 51°16.108 2°53.229 9.4 335 18.9 101320 48
2011-08-03 05:30:54 51°16.124 2°53.215 9.5 335 18.9 101330 48
2011-08-03 05:30:59 51°16.139 2°53.202 7.3 334 18.9 101330 48
2011-08-03 05:31:03 51°16.152 2°53.19 7.6 335 19 101330 47
2011-08-03 05:31:09 51°16.171 2°53.174 8.5 332 19 101330 47
2011-08-03 05:31:14 51°16.186 2°53.16 9.3 333 19 101330 48
2011-08-03 05:31:19 51°16.202 2°53.147 10.6 335 19 101330 48
2011-08-03 05:31:23 51°16.214 2°53.136 11.1 334 19 101330 48
2011-08-03 05:31:29 51°16.232 2°53.119 9.8 334 19 101330 48
2011-08-03 05:31:33 51°16.245 2°53.107 10.1 335 19.1 101330 48
2011-08-03 05:31:39 51°16.263 2°53.09 9.2 335 19.1 101330 48
2011-08-03 05:31:43 51°16.275 2°53.078 10.6 335 19.1 101330 49
2011-08-03 05:31:49 51°16.293 2°53.061 9.2 335 19.1 101330 49
2011-08-03 05:31:54 51°16.308 2°53.046 8.2 336 19.1 101330 49
2011-08-03 05:31:59 51°16.323 2°53.031 9.3 335 19.1 101330 49
2011-08-03 05:32:03 51°16.335 2°53.02 7.2 336 19.1 101320 49
2011-08-03 05:32:09 51°16.353 2°53.002 8.9 336 19.1 101320 49
2011-08-03 05:32:14 51°16.368 2°52.988 9 337 19.1 101330 49
2011-08-03 05:32:19 51°16.383 2°52.973 7.1 336 19.1 101330 49
2011-08-03 05:32:23 51°16.395 2°52.962 7.6 337 19.1 101330 48
2011-08-03 05:32:29 51°16.413 2°52.944 7.7 336 19.1 101330 48
2011-08-03 05:32:34 51°16.428 2°52.929 7.6 336 19.1 101330 47
2011-08-03 05:32:39 51°16.443 2°52.914 7.1 336 19.1 101330 47
2011-08-03 05:32:43 51°16.455 2°52.903 8.2 335 19 101330 48
2011-08-03 05:32:49 51°16.473 2°52.886 9.4 337 19 101330 48
2011-08-03 05:32:54 51°16.489 2°52.873 9.6 336 19.1 101330 48
2011-08-03 05:32:59 51°16.505 2°52.86 9.7 336 19.1 101330 48
2011-08-03 05:33:03 51°16.518 2°52.851 7.7 337 19 101330 48
2011-08-03 05:33:09 51°16.538 2°52.837 11.3 338 19 101330 48
2011-08-03 05:33:14 51°16.554 2°52.826 8.5 337 19 101340 48
2011-08-03 05:33:19 51°16.571 2°52.815 6.9 338 19 101340 48
2011-08-03 05:33:23 51°16.584 2°52.806 7.8 337 19 101330 48
2011-08-03 05:33:29 51°16.604 2°52.793 9.3 338 19 101330 48
2011-08-03 05:33:34 51°16.62 2°52.783 8.2 337 19 101330 47
2011-08-03 05:33:39 51°16.637 2°52.772 7.5 332 19 101330 47
2011-08-03 05:33:43 51°16.65 2°52.763 9.5 331 19 101330 48
2011-08-03 05:33:49 51°16.67 2°52.75 11.2 331 19 101330 48
2011-08-03 05:33:54 51°16.687 2°52.738 7.8 332 18.9 101330 47
2011-08-03 05:33:59 51°16.703 2°52.727 8.9 331 18.9 101330 47
2011-08-03 05:34:03 51°16.716 2°52.718 8.9 331 18.9 101330 48
2011-08-03 05:34:09 51°16.736 2°52.705 9.2 332 18.9 101330 48
2011-08-03 05:34:14 51°16.753 2°52.694 8.3 332 19 101330 48
2011-08-03 05:34:19 51°16.769 2°52.683 10 332 19 101330 48
2011-08-03 05:34:24 51°16.786 2°52.672 9.2 332 19.1 101330 49
2011-08-03 05:34:29 51°16.803 2°52.66 11.5 333 19.1 101330 49
2011-08-03 05:34:34 51°16.819 2°52.649 9.1 334 19.1 101330 49
2011-08-03 05:34:39 51°16.835 2°52.638 7.3 333 19.1 101330 49
2011-08-03 05:34:43 51°16.849 2°52.629 7.6 335 19.1 101330 49
2011-08-03 05:34:49 51°16.869 2°52.615 7 333 19.1 101330 49
2011-08-03 05:34:54 51°16.885 2°52.604 9.8 334 19.1 101330 49
2011-08-03 05:34:59 51°16.901 2°52.593 7.4 335 19.1 101330 49
2011-08-03 05:35:03 51°16.914 2°52.583 7.4 335 19.1 101330 48
2011-08-03 05:35:07 51°16.927 2°52.573 8.5 335 19.1 101330 48
2011-08-03 05:35:14 51°16.95 2°52.555 8.3 336 19.1 101330 47
2011-08-03 05:35:19 51°16.965 2°52.541 9.1 335 19.1 101330 47
2011-08-03 05:35:23 51°16.978 2°52.53 8 335 19 101330 49
2011-08-03 05:35:28 51°16.994 2°52.516 7.8 336 19 101330 49
2011-08-03 05:35:34 51°17.012 2°52.499 8.4 336 19 101330 48
2011-08-03 05:35:39 51°17.028 2°52.485 9.3 336 19 101330 48
2011-08-03 05:35:43 51°17.04 2°52.474 9.7 334 19 101330 49
2011-08-03 05:35:49 51°17.059 2°52.458 9.6 335 19 101330 49
2011-08-03 05:35:54 51°17.075 2°52.444 7 335 19 101330 48
2011-08-03 05:35:59 51°17.091 2°52.43 7.5 335 19 101330 48
2011-08-03 05:36:03 51°17.103 2°52.419 7.3 334 19 101330 49
2011-08-03 05:36:09 51°17.122 2°52.403 8.1 333 19 101330 49
2011-08-03 05:36:14 51°17.138 2°52.389 9.9 333 19 101340 49
2011-08-03 05:36:19 51°17.154 2°52.375 7.4 333 19 101340 49
2011-08-03 05:36:23 51°17.166 2°52.364 7.6 333 19 101330 49
2011-08-03 05:36:29 51°17.185 2°52.347 7.4 333 19 101330 49
2011-08-03 05:36:34 51°17.201 2°52.335 7.9 331 19 101330 50
2011-08-03 05:36:39 51°17.218 2°52.324 8 331 19 101330 50
2011-08-03 05:36:43 51°17.231 2°52.316 8 331 19 101330 50
2011-08-03 05:36:49 51°17.252 2°52.306 9.6 330 19 101330 50
2011-08-03 05:36:54 51°17.269 2°52.299 8.2 330 19 101330 50
2011-08-03 05:36:59 51°17.287 2°52.293 10.5 331 19 101330 50
2011-08-03 05:37:03 51°17.301 2°52.289 8.3 331 19 101330 50
2011-08-03 05:37:09 51°17.322 2°52.284 10.3 330 19 101330 50
2011-08-03 05:37:14 51°17.34 2°52.279 8 330 19 101330 50
2011-08-03 05:37:19 51°17.357 2°52.275 7.9 331 19 101330 50
2011-08-03 05:37:23 51°17.372 2°52.272 7.7 331 18.9 101330 50
2011-08-03 05:37:29 51°17.393 2°52.267 7.6 330 18.9 101330 50
2011-08-03 05:37:34 51°17.411 2°52.263 7.8 331 18.9 101330 51
2011-08-03 05:37:39 51°17.429 2°52.259 8.2 331 18.9 101330 51
2011-08-03 05:37:43 51°17.443 2°52.255 9.2 331 18.9 101330 50
2011-08-03 05:37:49 51°17.464 2°52.251 7.3 332 18.9 101330 50
2011-08-03 05:37:53 51°17.478 2°52.247 9.1 332 18.9 101330 49
2011-08-03 05:37:59 51°17.5 2°52.241 8.5 332 18.9 101330 49
2011-08-03 05:38:03 51°17.514 2°52.237 7.1 332 18.9 101330 50
2011-08-03 05:38:08 51°17.532 2°52.232 9.7 334 18.9 101330 50
2011-08-03 05:38:14 51°17.553 2°52.225 9.1 333 18.8 101330 50
2011-08-03 05:38:19 51°17.57 2°52.219 7.3 333 18.8 101330 50
2011-08-03 05:38:23 51°17.584 2°52.214 7.7 333 18.8 101330 50
2011-08-03 05:38:29 51°17.605 2°52.206 7.9 332 18.8 101330 50
2011-08-03 05:38:34 51°17.623 2°52.199 8 334 18.8 101330 50
2011-08-03 05:38:39 51°17.64 2°52.192 8.9 335 18.8 101330 50
2011-08-03 05:38:43 51°17.654 2°52.186 7 337 18.8 101330 50
2011-08-03 05:38:49 51°17.675 2°52.178 8.5 333 18.8 101330 50
2011-08-03 05:38:54 51°17.692 2°52.17 7.6 333 18.8 101340 51
2011-08-03 05:38:59 51°17.709 2°52.163 7.5 333 18.8 101340 51
2011-08-03 05:39:03 51°17.724 2°52.157 8.1 332 18.7 101340 50
2011-08-03 05:39:09 51°17.744 2°52.149 10.2 329 18.7 101340 50
2011-08-03 05:39:14 51°17.762 2°52.143 7.8 332 18.7 101330 50
2011-08-03 05:39:19 51°17.779 2°52.136 8.5 330 18.7 101330 50
2011-08-03 05:39:23 51°17.793 2°52.132 6.9 329 18.7 101330 50
2011-08-03 05:39:29 51°17.815 2°52.126 9.8 330 18.7 101330 50
2011-08-03 05:39:34 51°17.832 2°52.12 8.5 329 18.7 101330 50
2011-08-03 05:39:39 51°17.85 2°52.113 7.2 278 18.7 101330 50
2011-08-03 05:39:43 51°17.864 2°52.109 8.3 329 18.7 101330 51
2011-08-03 05:39:48 51°17.882 2°52.102 8 329 18.7 101330 51
2011-08-03 05:39:54 51°17.902 2°52.093 11.1 329 18.8 101330 51
2011-08-03 05:39:59 51°17.92 2°52.085 7.2 329 18.8 101330 51
2011-08-03 05:40:03 51°17.933 2°52.078 7.9 329 18.8 101330 51
2011-08-03 05:40:09 51°17.954 2°52.068 7.8 330 18.8 101330 51
2011-08-03 05:40:14 51°17.971 2°52.058 7.5 330 18.8 101330 52
2011-08-03 05:40:19 51°17.988 2°52.049 10.5 331 18.8 101330 52
2011-08-03 05:40:23 51°18.001 2°52.041 8 331 18.8 101330 52
2011-08-03 05:40:29 51°18.021 2°52.029 9.1 331 18.8 101330 52
2011-08-03 05:40:34 51°18.038 2°52.019 8.9 331 18.8 101330 50
2011-08-03 05:40:39 51°18.055 2°52.009 8.2 331 18.8 101330 50
2011-08-03 05:40:43 51°18.069 2°52.002 8.2 330 18.8 101330 52
2011-08-03 05:40:49 51°18.089 2°51.991 8 331 18.8 101330 52
2011-08-03 05:40:54 51°18.106 2°51.982 10.7 330 18.8 101330 52
2011-08-03 05:40:59 51°18.123 2°51.974 9.1 331 18.8 101330 52
2011-08-03 05:41:03 51°18.137 2°51.967 7.6 330 18.8 101340 51
2011-08-03 05:41:09 51°18.158 2°51.957 10.4 330 18.8 101340 51
2011-08-03 05:41:14 51°18.175 2°51.95 8.7 330 18.8 101340 51
2011-08-03 05:41:19 51°18.192 2°51.942 8.2 330 18.8 101340 51
2011-08-03 05:41:23 51°18.206 2°51.935 8.9 329 18.8 101330 52
2011-08-03 05:41:29 51°18.227 2°51.926 9 330 18.8 101330 52
2011-08-03 05:41:34 51°18.244 2°51.918 9.7 330 18.7 101340 52
2011-08-03 05:41:39 51°18.261 2°51.909 9.1 285 18.7 101340 52
2011-08-03 05:41:43 51°18.275 2°51.902 7.4 330 18.7 101330 52
2011-08-03 05:41:49 51°18.295 2°51.891 8.1 330 18.7 101330 52
2011-08-03 05:41:54 51°18.312 2°51.881 8.6 330 18.7 101340 52
2011-08-03 05:41:59 51°18.329 2°51.872 8 330 18.7 101340 52
2011-08-03 05:42:03 51°18.343 2°51.864 10.3 330 18.7 101340 52
2011-08-03 05:42:08 51°18.36 2°51.854 7.4 330 18.7 101340 52
2011-08-03 05:42:14 51°18.381 2°51.843 7.7 330 18.7 101330 53
2011-08-03 05:42:19 51°18.398 2°51.833 7.3 329 18.7 101330 53
2011-08-03 05:42:23 51°18.411 2°51.826 7.7 329 18.6 101340 52
2011-08-03 05:42:29 51°18.432 2°51.815 7.9 330 18.6 101340 52
2011-08-03 05:42:34 51°18.449 2°51.806 8.2 330 18.6 101340 53
2011-08-03 05:42:39 51°18.467 2°51.798 7.9 329 18.6 101340 53
2011-08-03 05:42:43 51°18.48 2°51.791 10.4 328 18.6 101340 52
2011-08-03 05:42:49 51°18.501 2°51.781 7.9 330 18.6 101340 52
2011-08-03 05:42:54 51°18.519 2°51.772 9.4 329 18.6 101340 53
2011-08-03 05:42:59 51°18.536 2°51.764 8.4 329 18.6 101340 53
2011-08-03 05:43:03 51°18.55 2°51.757 7.7 329 18.6 101340 52
2011-08-03 05:43:09 51°18.57 2°51.748 9.2 328 18.6 101340 52
2011-08-03 05:43:14 51°18.588 2°51.74 8.8 328 18.6 101340 52
2011-08-03 05:43:19 51°18.605 2°51.733 8 329 18.6 101340 52
2011-08-03 05:43:23 51°18.62 2°51.728 7.1 329 18.6 101340 53
2011-08-03 05:43:29 51°18.641 2°51.719 8.2 329 18.6 101340 53
2011-08-03 05:43:34 51°18.658 2°51.713 8.5 330 18.6 101340 53
2011-08-03 05:43:39 51°18.676 2°51.705 8 279 18.6 101340 53
2011-08-03 05:43:43 51°18.69 2°51.699 7.7 329 18.5 101340 53
2011-08-03 05:43:49 51°18.711 2°51.689 9.9 329 18.5 101340 53
2011-08-03 05:43:54 51°18.728 2°51.682 9.8 330 18.5 101350 53
2011-08-03 05:43:59 51°18.745 2°51.673 7.6 329 18.5 101350 53
2011-08-03 05:44:03 51°18.759 2°51.666 8.1 329 18.5 101340 53
2011-08-03 05:44:09 51°18.78 2°51.655 8.6 330 18.5 101340 53
2011-08-03 05:44:14 51°18.797 2°51.645 9 329 18.5 101340 53
2011-08-03 05:44:19 51°18.813 2°51.634 7.9 330 18.5 101340 53
2011-08-03 05:44:23 51°18.827 2°51.625 8.7 330 18.5 101340 52
2011-08-03 05:44:28 51°18.843 2°51.615 8.4 329 18.5 101340 52
2011-08-03 05:44:33 51°18.86 2°51.604 8 329 18.5 101340 53
2011-08-03 05:44:39 51°18.881 2°51.591 9 329 18.5 101340 53
2011-08-03 05:44:43 51°18.894 2°51.583 9.4 328 18.5 101340 53
2011-08-03 05:44:48 51°18.911 2°51.573 10.2 329 18.5 101340 53
2011-08-03 05:44:53 51°18.928 2°51.564 8.2 328 18.5 101340 53
2011-08-03 05:44:59 51°18.949 2°51.552 8.4 328 18.5 101340 53
2011-08-03 05:45:03 51°18.963 2°51.546 8.2 327 18.5 101340 54
2011-08-03 05:45:08 51°18.98 2°51.537 9.5 327 18.5 101340 54
2011-08-03 05:45:13 51°18.997 2°51.529 7.8 328 18.4 101340 53
2011-08-03 05:45:19 51°19.018 2°51.52 7.8 303 18.4 101340 53
2011-08-03 05:45:23 51°19.032 2°51.513 7.5 327 18.5 101340 53
2011-08-03 05:45:28 51°19.05 2°51.505 8.1 302 18.5 101340 53
2011-08-03 05:45:34 51°19.071 2°51.495 10.7 328 18.4 101340 53
2011-08-03 05:45:39 51°19.088 2°51.486 8.5 280 18.4 101340 53
2011-08-03 05:45:43 51°19.101 2°51.479 9.6 328 18.5 101340 53
2011-08-03 05:45:49 51°19.122 2°51.467 8.7 328 18.5 101340 53
2011-08-03 05:45:54 51°19.139 2°51.456 4.1 328 18.4 101340 52
2011-08-03 05:45:59 51°19.155 2°51.446 8.6 328 18.4 101340 52
2011-08-03 05:46:03 51°19.169 2°51.438 9.8 328 18.4 101340 53
2011-08-03 05:46:08 51°19.186 2°51.427 7.9 328 18.4 101340 53
2011-08-03 05:46:13 51°19.203 2°51.417 6.7 328 18.4 101340 53
2011-08-03 05:46:19 51°19.223 2°51.405 9.2 328 18.4 101340 53
2011-08-03 05:46:23 51°19.237 2°51.397 9.7 327 18.4 101350 53
2011-08-03 05:46:28 51°19.254 2°51.388 8.1 327 18.4 101350 53
2011-08-03 05:46:33 51°19.271 2°51.38 8.1 328 18.4 101340 53
2011-08-03 05:46:39 51°19.292 2°51.371 9.9 328 18.4 101340 53
2011-08-03 05:46:43 51°19.306 2°51.364 9.1 328 18.4 101350 53
2011-08-03 05:46:48 51°19.323 2°51.357 8.8 327 18.4 101350 53
2011-08-03 05:46:54 51°19.344 2°51.347 8.7 328 18.4 101340 54
2011-08-03 05:46:59 51°19.361 2°51.339 8.9 328 18.4 101340 54
2011-08-03 05:47:03 51°19.375 2°51.333 9.7 326 18.4 101350 54
2011-08-03 05:47:08 51°19.392 2°51.325 8.2 302 18.4 101350 54
2011-08-03 05:47:14 51°19.412 2°51.314 8.2 328 18.4 101340 54
2011-08-03 05:47:19 51°19.429 2°51.306 9.1 328 18.4 101340 54
2011-08-03 05:47:23 51°19.443 2°51.298 10.1 328 18.4 101340 54
2011-08-03 05:47:28 51°19.459 2°51.287 8.5 329 18.4 101340 54
2011-08-03 05:47:34 51°19.479 2°51.275 8.8 328 18.4 101350 54
2011-08-03 05:47:39 51°19.496 2°51.264 8.2 282 18.4 101350 54
2011-08-03 05:47:43 51°19.509 2°51.256 7.8 328 18.4 101340 53
2011-08-03 05:47:48 51°19.526 2°51.246 9 302 18.4 101340 53
2011-08-03 05:47:54 51°19.546 2°51.233 10.6 327 18.3 101350 54
2011-08-03 05:47:59 51°19.563 2°51.223 9.6 300 18.3 101350 54
2011-08-03 05:48:03 51°19.576 2°51.216 9.9 328 18.3 101350 54
2011-08-03 05:48:09 51°19.597 2°51.205 9.3 327 18.3 101350 54
2011-08-03 05:48:14 51°19.614 2°51.196 7.4 328 18.3 101350 54
2011-08-03 05:48:19 51°19.631 2°51.188 9.1 328 18.3 101350 54
2011-08-03 05:48:23 51°19.645 2°51.182 9.4 328 18.3 101350 54
2011-08-03 05:48:29 51°19.666 2°51.172 9.8 328 18.3 101350 54
2011-08-03 05:48:34 51°19.683 2°51.164 8.2 328 18.3 101340 52
2011-08-03 05:48:39 51°19.7 2°51.156 10.9 328 18.3 101340 52
2011-08-03 05:48:43 51°19.714 2°51.15 8.6 328 18.3 101350 54
2011-08-03 05:48:48 51°19.731 2°51.141 7.8 302 18.3 101350 54
2011-08-03 05:48:54 51°19.752 2°51.131 9.6 328 18.3 101350 53
2011-08-03 05:48:59 51°19.769 2°51.123 9.9 300 18.3 101350 53
2011-08-03 05:49:03 51°19.783 2°51.116 9.4 327 18.3 101350 54
2011-08-03 05:49:08 51°19.8 2°51.107 9.8 327 18.3 101350 54
2011-08-03 05:49:13 51°19.818 2°51.099 10.4 329 18.3 101350 54
2011-08-03 05:49:19 51°19.838 2°51.088 11.4 328 18.3 101350 54
2011-08-03 05:49:23 51°19.852 2°51.08 7.6 330 18.3 101350 54
2011-08-03 05:49:28 51°19.869 2°51.07 9.4 330 18.3 101350 54
2011-08-03 05:49:33 51°19.885 2°51.059 9.8 330 18.3 101350 54
2011-08-03 05:49:39 51°19.905 2°51.046 12.3 282 18.3 101350 54
2011-08-03 05:49:43 51°19.918 2°51.037 8.1 330 18.3 101350 54
2011-08-03 05:49:48 51°19.935 2°51.025 9.6 330 18.3 101350 54
2011-08-03 05:49:54 51°19.955 2°51.012 10.1 330 18.3 101350 54
2011-08-03 05:49:59 51°19.971 2°51 4.2 330 18.3 101350 54
2011-08-03 05:50:03 51°19.985 2°50.991 9 330 18.3 101350 53
2011-08-03 05:50:08 51°20.001 2°50.98 10.1 330 18.3 101350 53
2011-08-03 05:50:14 51°20.021 2°50.967 10.9 330 18.2 101350 54
2011-08-03 05:50:19 51°20.038 2°50.956 9 330 18.2 101350 54
2011-08-03 05:50:23 51°20.051 2°50.947 10.4 331 18.2 101350 55
2011-08-03 05:50:28 51°20.068 2°50.936 9 330 18.2 101350 55
2011-08-03 05:50:33 51°20.085 2°50.925 11.9 331 18.2 101350 55
2011-08-03 05:50:39 51°20.105 2°50.912 11.2 331 18.2 101350 55
2011-08-03 05:50:43 51°20.118 2°50.903 11.6 330 18.2 101350 53
2011-08-03 05:50:48 51°20.135 2°50.892 8.4 330 18.2 101350 53
2011-08-03 05:50:54 51°20.155 2°50.88 8.6 330 18.2 101350 55
2011-08-03 05:50:59 51°20.172 2°50.869 11 330 18.2 101350 55
2011-08-03 05:51:03 51°20.185 2°50.861 10.2 329 18.2 101350 54
2011-08-03 05:51:08 51°20.202 2°50.85 8.4 331 18.2 101350 54
2011-08-03 05:51:14 51°20.222 2°50.837 8 330 18.2 101350 52
2011-08-03 05:51:19 51°20.239 2°50.826 11.8 330 18.2 101350 52
2011-08-03 05:51:23 51°20.253 2°50.818 7.5 330 18.2 101350 55
2011-08-03 05:51:29 51°20.273 2°50.805 10.7 330 18.2 101350 55
2011-08-03 05:51:33 51°20.286 2°50.797 9.7 332 18.2 101350 53
2011-08-03 05:51:39 51°20.306 2°50.784 10.9 283 18.2 101350 53
2011-08-03 05:51:43 51°20.32 2°50.775 9 331 18.1 101350 55
2011-08-03 05:51:49 51°20.34 2°50.762 8.9 330 18.1 101350 55
2011-08-03 05:51:53 51°20.354 2°50.754 8.1 331 18.1 101350 54
2011-08-03 05:51:58 51°20.371 2°50.745 8.9 331 18.1 101350 54
2011-08-03 05:52:03 51°20.388 2°50.735 12.1 331 18.1 101350 54
2011-08-03 05:52:09 51°20.409 2°50.725 9.9 331 18.1 101350 54
2011-08-03 05:52:13 51°20.423 2°50.718 9.1 330 18.1 101350 53
2011-08-03 05:52:18 51°20.44 2°50.71 9.7 331 18.1 101350 53
2011-08-03 05:52:23 51°20.458 2°50.703 9 331 18.1 101360 55
2011-08-03 05:52:29 51°20.479 2°50.694 9 331 18.1 101360 55
2011-08-03 05:52:33 51°20.493 2°50.688 9.8 332 18.1 101350 54
2011-08-03 05:52:39 51°20.514 2°50.678 8.9 332 18.1 101350 54
2011-08-03 05:52:43 51°20.528 2°50.672 8.2 332 18.1 101350 54
2011-08-03 05:52:48 51°20.545 2°50.664 8.6 333 18.1 101350 54
2011-08-03 05:52:53 51°20.562 2°50.656 7.7 332 18.1 101350 54
2011-08-03 05:52:59 51°20.583 2°50.646 7.3 332 18.1 101350 54
2011-08-03 05:53:03 51°20.597 2°50.64 9.3 332 18.1 101350 54
2011-08-03 05:53:08 51°20.614 2°50.631 8 333 18.1 101350 54
2011-08-03 05:53:14 51°20.635 2°50.619 7.4 334 18.1 101350 54
2011-08-03 05:53:19 51°20.652 2°50.609 7.4 334 18.1 101350 54
2011-08-03 05:53:23 51°20.665 2°50.6 11.2 334 18.1 101350 55
2011-08-03 05:53:28 51°20.682 2°50.589 8.2 333 18.1 101350 55
2011-08-03 05:53:33 51°20.699 2°50.578 10.9 334 18.1 101350 55
2011-08-03 05:53:39 51°20.719 2°50.565 7.2 280 18.1 101350 55
2011-08-03 05:53:43 51°20.732 2°50.557 8.3 334 18 101360 55
2011-08-03 05:53:48 51°20.749 2°50.546 8.6 334 18 101360 55
2011-08-03 05:53:54 51°20.77 2°50.535 9.1 333 18 101350 52
2011-08-03 05:53:59 51°20.787 2°50.525 10.3 334 18 101350 52
2011-08-03 05:54:03 51°20.801 2°50.519 8.1 333 18 101350 54
2011-08-03 05:54:08 51°20.819 2°50.511 8.1 333 18 101350 54
2011-08-03 05:54:14 51°20.84 2°50.501 7.3 333 18 101350 55
2011-08-03 05:54:19 51°20.859 2°50.494 8.2 334 18 101350 55
2011-08-03 05:54:23 51°20.873 2°50.488 9.6 334 18 101350 54
2011-08-03 05:54:28 51°20.891 2°50.48 8.5 335 18 101350 54
2011-08-03 05:54:34 51°20.912 2°50.47 7.8 335 18 101350 55
2011-08-03 05:54:39 51°20.929 2°50.461 10.8 334 18 101350 55
2011-08-03 05:54:43 51°20.942 2°50.453 8 335 18 101350 55
2011-08-03 05:54:48 51°20.959 2°50.443 8.5 335 18 101350 55
2011-08-03 05:54:54 51°20.979 2°50.43 8.4 335 18 101350 54
2011-08-03 05:54:59 51°20.996 2°50.419 9.2 335 18 101350 54
2011-08-03 05:55:03 51°21.009 2°50.411 10.8 336 18 101350 54
2011-08-03 05:55:08 51°21.026 2°50.4 9.4 336 18 101350 54
2011-08-03 05:55:14 51°21.047 2°50.388 8.6 336 18 101350 54
2011-08-03 05:55:19 51°21.064 2°50.378 8.5 336 18 101350 54
2011-08-03 05:55:23 51°21.077 2°50.37 7.6 336 18 101350 55
2011-08-03 05:55:28 51°21.094 2°50.36 10 336 18 101350 55
2011-08-03 05:55:34 51°21.114 2°50.347 7.9 337 18 101350 54
2011-08-03 05:55:39 51°21.131 2°50.337 8.1 279 18 101350 54
2011-08-03 05:55:43 51°21.145 2°50.329 8.9 337 18 101350 55
2011-08-03 05:55:48 51°21.162 2°50.32 9.9 336 18 101350 55
2011-08-03 05:55:54 51°21.183 2°50.309 8.9 337 18 101350 54
2011-08-03 05:55:59 51°21.201 2°50.3 6.7 335 18 101350 54
2011-08-03 05:56:03 51°21.214 2°50.294 7.5 335 18 101350 54
2011-08-03 05:56:08 51°21.232 2°50.287 9.4 334 18 101350 54
2011-08-03 05:56:13 51°21.249 2°50.28 9.4 334 17.9 101360 53
2011-08-03 05:56:19 51°21.27 2°50.273 8.9 333 17.9 101360 53
2011-08-03 05:56:23 51°21.285 2°50.268 9.6 334 17.9 101350 54
2011-08-03 05:56:29 51°21.306 2°50.261 8.4 335 17.9 101350 54
2011-08-03 05:56:34 51°21.324 2°50.255 9.6 336 17.9 101350 52
2011-08-03 05:56:38 51°21.338 2°50.25 8.2 336 17.9 101350 52
2011-08-03 05:56:43 51°21.355 2°50.243 9.4 336 17.9 101360 53
2011-08-03 05:56:49 51°21.376 2°50.235 8.5 336 17.9 101360 53
2011-08-03 05:56:54 51°21.394 2°50.228 8.5 336 17.9 101360 53
2011-08-03 05:56:58 51°21.408 2°50.222 11.5 336 17.9 101360 53
2011-08-03 05:57:03 51°21.425 2°50.215 8.3 336 17.9 101350 53
2011-08-03 05:57:09 51°21.446 2°50.205 7.9 337 17.9 101350 53
2011-08-03 05:57:14 51°21.464 2°50.197 12.5 337 17.9 101360 53
2011-08-03 05:57:19 51°21.481 2°50.189 8.3 337 17.9 101360 53
2011-08-03 05:57:23 51°21.495 2°50.182 8.2 337 17.9 101360 55
2011-08-03 05:57:29 51°21.516 2°50.172 9.2 337 17.9 101360 55
2011-08-03 05:57:34 51°21.533 2°50.163 4.3 337 17.9 101360 53
2011-08-03 05:57:39 51°21.551 2°50.155 8.8 281 17.9 101360 53
2011-08-03 05:57:43 51°21.564 2°50.148 8.2 337 17.9 101350 53
2011-08-03 05:57:48 51°21.582 2°50.14 8.3 338 17.9 101350 53
2011-08-03 05:57:54 51°21.603 2°50.13 3.9 337 17.9 101360 54
2011-08-03 05:57:59 51°21.621 2°50.122 8.1 337 17.9 101360 54
2011-08-03 05:58:03 51°21.635 2°50.116 10.1 336 17.9 101360 54
2011-08-03 05:58:08 51°21.653 2°50.109 8.9 336 17.9 101360 54
2011-08-03 05:58:13 51°21.671 2°50.102 8.1 337 17.9 101350 54
2011-08-03 05:58:19 51°21.692 2°50.095 7.3 337 17.9 101350 54
2011-08-03 05:58:23 51°21.706 2°50.09 10 337 17.9 101360 54
2011-08-03 05:58:29 51°21.727 2°50.083 8.9 336 17.9 101360 54
2011-08-03 05:58:33 51°21.742 2°50.078 8.7 337 17.9 101360 54
2011-08-03 05:58:39 51°21.763 2°50.071 8.9 335 17.9 101360 54
2011-08-03 05:58:43 51°21.777 2°50.066 8.3 335 17.9 101350 53
2011-08-03 05:58:48 51°21.795 2°50.06 10 336 17.9 101350 53
2011-08-03 05:58:53 51°21.813 2°50.054 4.2 336 17.9 101360 54
2011-08-03 05:58:59 51°21.835 2°50.046 7.5 336 17.9 101360 54
2011-08-03 05:59:03 51°21.849 2°50.04 9.4 337 17.9 101360 54
2011-08-03 05:59:08 51°21.866 2°50.033 7.9 336 17.9 101360 54
2011-08-03 05:59:13 51°21.884 2°50.025 9.8 336 17.9 101360 52
2011-08-03 05:59:19 51°21.905 2°50.016 7.9 337 17.9 101360 52
2011-08-03 05:59:23 51°21.919 2°50.009 8.1 337 17.9 101360 54
2011-08-03 05:59:28 51°21.936 2°50 8.1 337 17.9 101360 54
2011-08-03 05:59:33 51°21.953 2°49.991 9 337 17.9 101360 54
2011-08-03 05:59:39 51°21.974 2°49.981 8.2 278 17.9 101360 54
2011-08-03 05:59:43 51°21.988 2°49.974 6.8 336 17.9 101360 53
2011-08-03 05:59:49 51°22.009 2°49.964 8.1 336 17.9 101360 53
2011-08-03 05:59:54 51°22.027 2°49.956 8.4 336 17.9 101360 54
2011-08-03 05:59:59 51°22.044 2°49.947 7.1 336 17.9 101360 54
2011-08-03 06:00:03 51°22.059 2°49.941 10.4 336 17.9 101360 54
2011-08-03 06:00:08 51°22.076 2°49.933 8 336 17.9 101360 54
2011-08-03 06:00:14 51°22.097 2°49.924 7.3 336 17.9 101360 54
2011-08-03 06:00:19 51°22.115 2°49.917 6.9 336 17.9 101360 54
2011-08-03 06:00:23 51°22.129 2°49.912 7.7 336 18 101370 53
2011-08-03 06:00:28 51°22.147 2°49.906 7.7 336 18 101370 53
2011-08-03 06:00:34 51°22.168 2°49.898 7.6 335 18 101360 54
2011-08-03 06:00:39 51°22.186 2°49.892 8.6 336 18 101360 54
2011-08-03 06:00:43 51°22.2 2°49.887 7.1 335 18 101360 54
2011-08-03 06:00:48 51°22.218 2°49.88 7.7 335 18 101360 54
2011-08-03 06:00:54 51°22.239 2°49.872 8.7 335 18 101370 53
2011-08-03 06:00:59 51°22.257 2°49.865 8.3 337 18 101370 53
2011-08-03 06:01:03 51°22.271 2°49.86 7.3 336 18 101360 53
2011-08-03 06:01:08 51°22.288 2°49.852 6.6 337 18 101360 53
2011-08-03 06:01:14 51°22.309 2°49.842 7 336 18 101370 54
2011-08-03 06:01:19 51°22.327 2°49.833 8.3 336 18 101370 54
2011-08-03 06:01:23 51°22.341 2°49.826 9 336 18 101360 53
2011-08-03 06:01:28 51°22.358 2°49.817 8.9 339 18 101360 53
2011-08-03 06:01:34 51°22.378 2°49.806 7.2 338 18 101370 54
2011-08-03 06:01:39 51°22.395 2°49.797 7.1 283 18 101370 54
2011-08-03 06:01:43 51°22.409 2°49.789 7.5 338 18 101370 53
2011-08-03 06:01:48 51°22.426 2°49.78 9.1 338 18 101370 53
2011-08-03 06:01:54 51°22.447 2°49.77 7.1 337 18 101370 53
2011-08-03 06:01:59 51°22.464 2°49.761 7.1 338 18 101370 53
2011-08-03 06:02:03 51°22.478 2°49.754 7.3 336 18 101370 53
2011-08-03 06:02:08 51°22.495 2°49.745 8.3 338 18 101370 53
2011-08-03 06:02:13 51°22.513 2°49.737 9.3 338 18 101370 53
2011-08-03 06:02:19 51°22.534 2°49.728 9.6 337 18 101370 53
2011-08-03 06:02:23 51°22.548 2°49.723 7.7 337 18 101370 53
2011-08-03 06:02:29 51°22.569 2°49.715 8.5 337 18 101370 53
2011-08-03 06:02:34 51°22.587 2°49.709 7.3 338 18 101370 53
2011-08-03 06:02:39 51°22.605 2°49.703 10.9 337 18 101370 53
2011-08-03 06:02:43 51°22.619 2°49.698 7.5 338 18 101370 54
2011-08-03 06:02:49 51°22.64 2°49.691 7.4 338 18 101370 54
2011-08-03 06:02:53 51°22.654 2°49.686 6.3 339 18 101360 53
2011-08-03 06:02:59 51°22.676 2°49.678 6.9 338 18 101360 53
2011-08-03 06:03:03 51°22.69 2°49.672 7.7 340 17.9 101370 53
2011-08-03 06:03:09 51°22.711 2°49.664 7.7 338 17.9 101370 53
2011-08-03 06:03:13 51°22.725 2°49.659 7.3 338 17.9 101360 53
2011-08-03 06:03:18 51°22.743 2°49.652 7.4 339 17.9 101360 53
2011-08-03 06:03:23 51°22.76 2°49.644 7.2 340 17.9 101370 53
2011-08-03 06:03:29 51°22.782 2°49.635 6.6 340 17.9 101370 53
2011-08-03 06:03:34 51°22.799 2°49.627 8.2 339 17.9 101370 54
2011-08-03 06:03:38 51°22.813 2°49.62 7.6 285 17.9 101370 54
2011-08-03 06:03:43 51°22.83 2°49.611 7.8 339 17.9 101370 52
2011-08-03 06:03:49 51°22.851 2°49.6 7.1 340 17.9 101370 52
2011-08-03 06:03:54 51°22.868 2°49.592 7.2 339 17.9 101370 53
2011-08-03 06:03:58 51°22.882 2°49.584 6.1 338 17.9 101370 53
2011-08-03 06:04:03 51°22.9 2°49.575 6.6 339 17.9 101370 53
2011-08-03 06:04:09 51°22.92 2°49.565 8 339 17.9 101370 53
2011-08-03 06:04:14 51°22.938 2°49.556 7.6 340 17.9 101370 53
2011-08-03 06:04:19 51°22.956 2°49.548 7 339 17.9 101370 53
2011-08-03 06:04:23 51°22.97 2°49.541 8.1 340 18 101370 54
2011-08-03 06:04:29 51°22.991 2°49.533 7.1 340 18 101370 54
2011-08-03 06:04:34 51°23.008 2°49.525 6.5 341 18 101370 52
2011-08-03 06:04:39 51°23.026 2°49.518 6.7 341 18 101370 52
2011-08-03 06:04:43 51°23.041 2°49.512 7.9 340 18 101370 53
2011-08-03 06:04:48 51°23.058 2°49.505 6.9 340 18 101370 53
2011-08-03 06:04:54 51°23.08 2°49.496 6.8 340 18 101370 53
2011-08-03 06:04:59 51°23.097 2°49.49 6.6 340 18 101370 53
2011-08-03 06:05:03 51°23.112 2°49.484 7.7 340 18 101370 54
2011-08-03 06:05:08 51°23.13 2°49.477 6.7 340 18 101370 54
2011-08-03 06:05:13 51°23.148 2°49.47 7 340 18 101360 54
2011-08-03 06:05:19 51°23.169 2°49.461 6.4 340 18 101360 54
2011-08-03 06:05:23 51°23.183 2°49.454 6.6 341 18 101370 53
2011-08-03 06:05:28 51°23.2 2°49.446 6.8 340 18 101370 53
2011-08-03 06:05:33 51°23.218 2°49.437 8.6 340 18 101370 54
2011-08-03 06:05:39 51°23.239 2°49.425 6.5 282 18 101370 54
2011-08-03 06:05:43 51°23.253 2°49.417 6.2 341 18 101370 53
2011-08-03 06:05:49 51°23.273 2°49.405 7.4 342 18 101370 53
2011-08-03 06:05:54 51°23.29 2°49.395 7.3 342 18 101370 53
2011-08-03 06:05:59 51°23.307 2°49.385 6.4 342 18 101370 53
2011-08-03 06:06:03 51°23.321 2°49.377 7.2 342 18 101370 53
2011-08-03 06:06:09 51°23.342 2°49.366 5.9 339 18 101370 53
2011-08-03 06:06:14 51°23.36 2°49.357 7.1 340 18 101360 53
2011-08-03 06:06:19 51°23.378 2°49.349 8.2 339 18 101360 53
2011-08-03 06:06:23 51°23.392 2°49.343 7.5 339 18 101370 53
2011-08-03 06:06:29 51°23.413 2°49.334 6.7 340 18 101370 53
2011-08-03 06:06:34 51°23.431 2°49.327 8 342 18 101370 53
2011-08-03 06:06:39 51°23.449 2°49.32 7.6 343 18 101370 53
2011-08-03 06:06:43 51°23.463 2°49.314 7.5 343 18.1 101370 54
2011-08-03 06:06:48 51°23.48 2°49.306 8.8 343 18.1 101370 54
2011-08-03 06:06:54 51°23.501 2°49.297 9.1 344 18.1 101370 54
2011-08-03 06:06:59 51°23.519 2°49.289 8.3 344 18.1 101370 54
2011-08-03 06:07:03 51°23.533 2°49.282 7.4 344 18 101360 53
2011-08-03 06:07:08 51°23.55 2°49.272 8.1 344 18 101360 53
2011-08-03 06:07:14 51°23.571 2°49.261 7.2 344 18 101370 52
2011-08-03 06:07:19 51°23.588 2°49.252 6.1 344 18 101370 52
2011-08-03 06:07:23 51°23.602 2°49.244 9.2 345 18 101370 53
2011-08-03 06:07:28 51°23.619 2°49.235 8.7 344 18 101370 53
2011-08-03 06:07:33 51°23.636 2°49.225 7.5 344 18 101360 52
2011-08-03 06:07:39 51°23.657 2°49.213 7.8 280 18 101360 52
2011-08-03 06:07:43 51°23.671 2°49.205 7 343 18 101360 53
2011-08-03 06:07:48 51°23.688 2°49.195 7.4 343 18 101360 53
2011-08-03 06:07:54 51°23.708 2°49.184 6.9 344 18 101370 53
2011-08-03 06:07:59 51°23.726 2°49.174 7.4 343 18 101370 53
2011-08-03 06:08:03 51°23.739 2°49.166 7.3 343 18 101370 53
2011-08-03 06:08:08 51°23.756 2°49.156 8.3 343 18 101370 53
2011-08-03 06:08:14 51°23.777 2°49.145 7.6 343 18 101370 52
2011-08-03 06:08:19 51°23.794 2°49.135 7.6 343 18 101370 52
2011-08-03 06:08:23 51°23.808 2°49.127 7.7 343 18 101370 53
2011-08-03 06:08:28 51°23.825 2°49.118 6.9 342 18 101370 53
2011-08-03 06:08:34 51°23.846 2°49.108 7.1 341 18 101370 53
2011-08-03 06:08:39 51°23.863 2°49.099 6.3 342 18 101370 53
2011-08-03 06:08:43 51°23.877 2°49.093 7.4 342 18.1 101370 53
2011-08-03 06:08:48 51°23.895 2°49.086 7.3 341 18.1 101370 53
2011-08-03 06:08:54 51°23.917 2°49.078 7.6 342 18.1 101370 53
2011-08-03 06:08:59 51°23.935 2°49.071 7.8 342 18.1 101370 53
2011-08-03 06:09:03 51°23.949 2°49.066 6.7 342 18.1 101370 52
2011-08-03 06:09:08 51°23.967 2°49.059 9.2 342 18.1 101370 52
2011-08-03 06:09:14 51°23.988 2°49.05 8 342 18.1 101370 52
2011-08-03 06:09:19 51°24.005 2°49.041 7.6 342 18.1 101370 52
2011-08-03 06:09:23 51°24.019 2°49.034 7.6 342 18.1 101370 53
2011-08-03 06:09:28 51°24.036 2°49.025 7.6 341 18.1 101370 53
2011-08-03 06:09:33 51°24.054 2°49.015 7.5 342 18.1 101370 52
2011-08-03 06:09:39 51°24.074 2°49.003 7.6 277 18.1 101370 52
2011-08-03 06:09:43 51°24.088 2°48.995 7.1 341 18.1 101370 53
2011-08-03 06:09:48 51°24.105 2°48.985 7.4 339 18.1 101370 53
2011-08-03 06:09:53 51°24.122 2°48.975 7 340 18.1 101370 52
2011-08-03 06:09:59 51°24.142 2°48.962 6.7 339 18.1 101370 52
2011-08-03 06:10:03 51°24.156 2°48.955 7 340 18.1 101370 52
2011-08-03 06:10:08 51°24.174 2°48.947 7 339 18.1 101370 52
2011-08-03 06:10:13 51°24.191 2°48.94 5.7 338 18.1 101370 53
2011-08-03 06:10:19 51°24.212 2°48.932 6.8 339 18.1 101370 53
2011-08-03 06:10:23 51°24.226 2°48.928 7 338 18.1 101370 53
2011-08-03 06:10:29 51°24.248 2°48.921 6.8 339 18.1 101370 53
2011-08-03 06:10:34 51°24.265 2°48.916 6.9 340 18.2 101370 53
2011-08-03 06:10:39 51°24.283 2°48.91 7.9 339 18.2 101370 53
2011-08-03 06:10:43 51°24.297 2°48.907 3.3 340 18.2 101370 54
2011-08-03 06:10:49 51°24.318 2°48.9 6.9 339 18.2 101370 54
2011-08-03 06:10:54 51°24.336 2°48.895 7 340 18.2 101370 53
2011-08-03 06:10:59 51°24.354 2°48.89 6.9 340 18.2 101370 53
2011-08-03 06:11:03 51°24.368 2°48.885 7.2 339 18.2 101370 53
2011-08-03 06:11:08 51°24.386 2°48.879 7.2 339 18.2 101370 53
2011-08-03 06:11:14 51°24.407 2°48.871 7.1 340 18.2 101370 53
2011-08-03 06:11:19 51°24.425 2°48.865 7.2 339 18.2 101370 53
2011-08-03 06:11:23 51°24.439 2°48.86 6.6 340 18.2 101370 53
2011-08-03 06:11:28 51°24.457 2°48.854 7.2 339 18.2 101370 53
2011-08-03 06:11:33 51°24.474 2°48.847 7.1 339 18.2 101370 53
2011-08-03 06:11:39 51°24.495 2°48.839 7.3 284 18.2 101370 53
2011-08-03 06:11:43 51°24.509 2°48.833 7 339 18.2 101370 52
2011-08-03 06:11:48 51°24.527 2°48.826 7.3 340 18.2 101370 52
2011-08-03 06:11:53 51°24.544 2°48.819 7.2 339 18.2 101370 53
2011-08-03 06:11:59 51°24.565 2°48.81 7.4 339 18.2 101370 53
2011-08-03 06:12:03 51°24.58 2°48.805 7.6 339 18.2 101370 53
2011-08-03 06:12:08 51°24.597 2°48.799 7.1 338 18.2 101370 53
2011-08-03 06:12:14 51°24.619 2°48.792 8.1 338 18.2 101370 53
2011-08-03 06:12:19 51°24.636 2°48.786 7.4 338 18.2 101370 53
2011-08-03 06:12:23 51°24.651 2°48.782 7.3 338 18.2 101370 53
2011-08-03 06:12:28 51°24.669 2°48.777 7.7 338 18.2 101370 53
2011-08-03 06:12:34 51°24.69 2°48.771 7.2 338 18.2 101370 52
2011-08-03 06:12:39 51°24.708 2°48.767 7.1 339 18.2 101370 52
2011-08-03 06:12:43 51°24.723 2°48.764 7.7 338 18.2 101370 53
2011-08-03 06:12:48 51°24.741 2°48.76 7.2 339 18.2 101370 53
2011-08-03 06:12:54 51°24.762 2°48.756 7.6 340 18.2 101370 53
2011-08-03 06:12:59 51°24.78 2°48.752 7.5 339 18.2 101370 53
2011-08-03 06:13:03 51°24.795 2°48.748 7 339 18.2 101370 52
2011-08-03 06:13:08 51°24.813 2°48.744 6.6 339 18.2 101370 52
2011-08-03 06:13:14 51°24.834 2°48.738 6.7 339 18.2 101370 53
2011-08-03 06:13:19 51°24.852 2°48.733 6.7 339 18.2 101370 53
2011-08-03 06:13:23 51°24.867 2°48.729 6.4 338 18.2 101370 53
2011-08-03 06:13:28 51°24.884 2°48.723 6.2 341 18.2 101370 53
2011-08-03 06:13:34 51°24.906 2°48.717 7.7 341 18.2 101370 53
2011-08-03 06:13:39 51°24.924 2°48.711 7.4 278 18.2 101370 53
2011-08-03 06:13:43 51°24.938 2°48.706 7 342 18.2 101370 54
2011-08-03 06:13:47 51°24.952 2°48.701 6.8 342 18.2 101370 54
2011-08-03 06:13:54 51°24.977 2°48.692 7.7 342 18.2 101370 53
2011-08-03 06:13:59 51°24.994 2°48.684 5.7 341 18.2 101370 53
2011-08-03 06:14:03 51°25.008 2°48.678 7.2 342 18.2 101370 52
2011-08-03 06:14:08 51°25.025 2°48.671 6.7 342 18.2 101370 52
2011-08-03 06:14:13 51°25.043 2°48.664 7.5 342 18.2 101370 52
2011-08-03 06:14:19 51°25.064 2°48.656 7.3 342 18.2 101370 52
2011-08-03 06:14:23 51°25.078 2°48.65 6.9 342 18.1 101370 54
2011-08-03 06:14:28 51°25.096 2°48.644 7.3 342 18.1 101370 54
2011-08-03 06:14:33 51°25.114 2°48.638 7.7 342 18.1 101370 53
2011-08-03 06:14:39 51°25.135 2°48.632 7.5 342 18.1 101370 53
2011-08-03 06:14:43 51°25.15 2°48.629 7.7 343 18.1 101370 52
2011-08-03 06:14:48 51°25.168 2°48.624 7 343 18.1 101370 52
2011-08-03 06:14:53 51°25.186 2°48.621 7 343 18.1 101370 53
2011-08-03 06:14:59 51°25.207 2°48.616 7.7 343 18.1 101370 53
2011-08-03 06:15:03 51°25.222 2°48.613 6.5 342 18.1 101370 52
2011-08-03 06:15:08 51°25.24 2°48.608 6.9 343 18.1 101370 52
2011-08-03 06:15:14 51°25.262 2°48.603 8 342 18.1 101370 51
2011-08-03 06:15:19 51°25.28 2°48.599 7.9 342 18.1 101370 51
2011-08-03 06:15:23 51°25.294 2°48.595 6.6 342 18 101370 53
2011-08-03 06:15:28 51°25.312 2°48.591 7.2 343 18 101370 53
2011-08-03 06:15:34 51°25.334 2°48.585 9 343 18 101370 52
2011-08-03 06:15:39 51°25.352 2°48.58 7.1 285 18 101370 52
2011-08-03 06:15:43 51°25.366 2°48.576 7.2 344 18 101360 52
2011-08-03 06:15:48 51°25.384 2°48.569 6.5 345 18 101360 52
2011-08-03 06:15:54 51°25.406 2°48.561 6.7 345 18 101360 53
2011-08-03 06:15:59 51°25.423 2°48.554 6.7 345 18 101360 53
2011-08-03 06:16:03 51°25.437 2°48.549 7.3 344 18 101360 52
2011-08-03 06:16:08 51°25.455 2°48.542 6.9 345 18 101360 52
2011-08-03 06:16:13 51°25.473 2°48.536 7.4 345 18 101360 53
2011-08-03 06:16:19 51°25.495 2°48.528 6.4 345 18 101360 53
2011-08-03 06:16:23 51°25.509 2°48.523 6.9 345 17.9 101360 52
2011-08-03 06:16:28 51°25.527 2°48.517 7.8 345 17.9 101360 52
2011-08-03 06:16:34 51°25.548 2°48.509 6.5 346 17.9 101360 53
2011-08-03 06:16:39 51°25.566 2°48.504 6.4 346 17.9 101360 53
2011-08-03 06:16:43 51°25.581 2°48.5 6.9 345 17.9 101360 53
2011-08-03 06:16:48 51°25.599 2°48.495 6.9 345 17.9 101360 53
2011-08-03 06:16:54 51°25.621 2°48.49 6.8 345 18 101360 53
2011-08-03 06:16:59 51°25.639 2°48.486 6.7 346 18 101360 53
2011-08-03 06:17:03 51°25.654 2°48.483 6.2 346 18 101360 53
2011-08-03 06:17:08 51°25.672 2°48.479 7.9 347 18 101360 53
2011-08-03 06:17:14 51°25.693 2°48.475 6.4 347 18 101360 53
2011-08-03 06:17:19 51°25.712 2°48.47 7.6 349 18 101360 53
2011-08-03 06:17:23 51°25.726 2°48.467 7.9 348 18 101360 53
2011-08-03 06:17:29 51°25.748 2°48.461 7.3 347 18 101360 53
2011-08-03 06:17:34 51°25.766 2°48.455 6.7 349 18 101360 53
2011-08-03 06:17:39 51°25.784 2°48.449 6.9 279 18 101360 53
2011-08-03 06:17:43 51°25.799 2°48.444 6.3 350 18 101360 53
2011-08-03 06:17:48 51°25.817 2°48.438 7 351 18 101360 53
2011-08-03 06:17:54 51°25.838 2°48.43 7.2 350 18 101360 51
2011-08-03 06:17:59 51°25.856 2°48.423 6.7 351 18 101360 51
2011-08-03 06:18:03 51°25.871 2°48.417 8.5 350 18 101360 53
2011-08-03 06:18:08 51°25.889 2°48.411 7.2 350 18 101360 53
2011-08-03 06:18:14 51°25.911 2°48.404 6.7 350 18 101360 52
2011-08-03 06:18:19 51°25.929 2°48.398 7.3 350 18 101360 52
2011-08-03 06:18:23 51°25.943 2°48.393 7.4 350 18 101350 53
2011-08-03 06:18:28 51°25.962 2°48.387 7.9 349 18 101350 53
2011-08-03 06:18:33 51°25.98 2°48.383 9.2 349 17.9 101350 53
2011-08-03 06:18:39 51°26.002 2°48.378 8.1 350 17.9 101350 53
2011-08-03 06:18:43 51°26.017 2°48.375 7.5 350 18 101350 51
2011-08-03 06:18:48 51°26.035 2°48.371 6.9 350 18 101350 51
2011-08-03 06:18:53 51°26.054 2°48.366 7.4 350 17.9 101350 52
2011-08-03 06:18:59 51°26.076 2°48.36 7.1 350 17.9 101350 52
2011-08-03 06:19:03 51°26.09 2°48.356 6.8 350 17.9 101350 53
2011-08-03 06:19:08 51°26.109 2°48.35 7 351 17.9 101350 53
2011-08-03 06:19:14 51°26.13 2°48.342 6.7 349 18 101350 52
2011-08-03 06:19:19 51°26.149 2°48.335 7.8 351 18 101350 52
2011-08-03 06:19:23 51°26.163 2°48.33 6.6 350 18 101360 53
2011-08-03 06:19:28 51°26.181 2°48.322 6.8 350 18 101360 53
2011-08-03 06:19:34 51°26.203 2°48.313 7.5 351 18 101360 51
2011-08-03 06:19:39 51°26.221 2°48.305 6.3 350 18 101360 51
2011-08-03 06:19:43 51°26.235 2°48.299 7.9 350 18 101360 51
2011-08-03 06:19:48 51°26.253 2°48.291 6.9 350 18 101360 51
2011-08-03 06:19:54 51°26.274 2°48.282 6.5 349 18 101350 51
2011-08-03 06:19:59 51°26.292 2°48.275 7.2 348 18 101350 51
2011-08-03 06:20:03 51°26.307 2°48.269 6.1 350 18.1 101360 52
2011-08-03 06:20:08 51°26.325 2°48.262 6.8 350 18.1 101360 52
2011-08-03 06:20:14 51°26.346 2°48.254 6.8 351 18.1 101350 53
2011-08-03 06:20:19 51°26.364 2°48.247 7 351 18.1 101350 53
2011-08-03 06:20:23 51°26.379 2°48.242 6.7 351 18.1 101360 52
2011-08-03 06:20:28 51°26.397 2°48.235 5.9 351 18.1 101360 52
2011-08-03 06:20:33 51°26.415 2°48.229 7 351 18.1 101350 51
2011-08-03 06:20:39 51°26.436 2°48.222 6.8 278 18.1 101350 51
2011-08-03 06:20:43 51°26.451 2°48.218 6.2 350 18.1 101350 51
2011-08-03 06:20:48 51°26.469 2°48.212 7.3 352 18.1 101350 51
2011-08-03 06:20:53 51°26.487 2°48.207 6.9 351 18.1 101350 51
2011-08-03 06:20:59 51°26.509 2°48.2 7 351 18.1 101350 51
2011-08-03 06:21:03 51°26.523 2°48.196 6.4 350 18.1 101350 52
2011-08-03 06:21:08 51°26.541 2°48.19 6.2 349 18.1 101350 52
2011-08-03 06:21:14 51°26.563 2°48.182 6.6 350 18.1 101350 51
2011-08-03 06:21:19 51°26.581 2°48.176 5.8 350 18.1 101350 51
2011-08-03 06:21:23 51°26.595 2°48.17 6.4 349 18.1 101350 52
2011-08-03 06:21:29 51°26.616 2°48.162 6.4 349 18.1 101350 52
2011-08-03 06:21:34 51°26.634 2°48.156 5.9 351 18.1 101350 51
2011-08-03 06:21:39 51°26.652 2°48.149 5.3 350 18.1 101350 51
2011-08-03 06:21:43 51°26.666 2°48.143 6.5 349 18.1 101350 51
2011-08-03 06:21:49 51°26.687 2°48.134 5.3 348 18.1 101350 51
2011-08-03 06:21:54 51°26.705 2°48.126 5.4 348 18.1 101360 52
2011-08-03 06:21:59 51°26.723 2°48.118 5.5 349 18.1 101360 52
2011-08-03 06:22:03 51°26.737 2°48.112 6 348 18.1 101350 51
2011-08-03 06:22:09 51°26.758 2°48.103 6.2 348 18.1 101350 51
2011-08-03 06:22:14 51°26.776 2°48.095 6.7 349 18.1 101360 53
2011-08-03 06:22:19 51°26.794 2°48.087 6.4 351 18.1 101360 53
2011-08-03 06:22:23 51°26.808 2°48.081 6.8 351 18.1 101360 51
2011-08-03 06:22:28 51°26.826 2°48.073 5.5 350 18.1 101360 51
2011-08-03 06:22:34 51°26.847 2°48.064 6.6 351 18.2 101360 52
2011-08-03 06:22:39 51°26.865 2°48.057 7.5 351 18.2 101360 52
2011-08-03 06:22:43 51°26.88 2°48.052 7.1 351 18.2 101360 53
2011-08-03 06:22:48 51°26.898 2°48.046 6.6 350 18.2 101360 53
2011-08-03 06:22:53 51°26.916 2°48.04 5.6 350 18.1 101360 51
2011-08-03 06:22:59 51°26.937 2°48.033 5.8 351 18.1 101360 51
2011-08-03 06:23:03 51°26.951 2°48.028 6.5 352 18.1 101360 52
2011-08-03 06:23:08 51°26.969 2°48.023 6.6 351 18.1 101360 52
2011-08-03 06:23:13 51°26.987 2°48.018 6 352 18.1 101360 50
2011-08-03 06:23:19 51°27.009 2°48.012 6.2 352 18.1 101360 50
2011-08-03 06:23:23 51°27.023 2°48.008 5.9 352 18.1 101360 52
2011-08-03 06:23:28 51°27.041 2°48.003 5.9 352 18.1 101360 52
2011-08-03 06:23:34 51°27.063 2°47.997 5.6 352 18.1 101360 52
2011-08-03 06:23:39 51°27.08 2°47.99 6.2 352 18.1 101360 52
2011-08-03 06:23:43 51°27.094 2°47.985 6.3 351 18.1 101360 51
2011-08-03 06:23:48 51°27.112 2°47.977 5.6 351 18.1 101360 51
2011-08-03 06:23:54 51°27.133 2°47.967 6.1 351 18.1 101360 52
2011-08-03 06:23:59 51°27.15 2°47.958 5.3 352 18.1 101360 52
2011-08-03 06:24:03 51°27.164 2°47.951 5.4 352 18.1 101360 52
2011-08-03 06:24:08 51°27.181 2°47.942 5.9 352 18.1 101360 52
2011-08-03 06:24:14 51°27.202 2°47.931 5 350 18.1 101360 53
2011-08-03 06:24:19 51°27.219 2°47.922 5.9 351 18.1 101360 53
2011-08-03 06:24:23 51°27.233 2°47.915 6.1 351 18.1 101360 51
2011-08-03 06:24:28 51°27.251 2°47.906 5.8 351 18.1 101360 51
2011-08-03 06:24:34 51°27.271 2°47.896 5.1 351 18.2 101360 53
2011-08-03 06:24:39 51°27.289 2°47.887 6.1 353 18.2 101360 53
2011-08-03 06:24:43 51°27.303 2°47.88 4.8 350 18.2 101360 52
2011-08-03 06:24:47 51°27.317 2°47.873 4.9 351 18.2 101360 52
2011-08-03 06:24:54 51°27.342 2°47.862 5.8 352 18.1 101360 53
2011-08-03 06:24:59 51°27.36 2°47.855 5.2 351 18.1 101360 53
2011-08-03 06:25:03 51°27.374 2°47.849 5.8 350 18.1 101370 53
2011-08-03 06:25:08 51°27.392 2°47.842 5.7 350 18.1 101370 53
2011-08-03 06:25:13 51°27.41 2°47.836 6.1 348 18.1 101360 51
2011-08-03 06:25:19 51°27.431 2°47.829 5.2 349 18.1 101360 51
2011-08-03 06:25:23 51°27.445 2°47.825 6.1 350 18.2 101360 51
2011-08-03 06:25:28 51°27.463 2°47.819 5.8 349 18.2 101360 51
2011-08-03 06:25:33 51°27.481 2°47.813 5.7 350 18.2 101360 53
2011-08-03 06:25:39 51°27.503 2°47.807 5.1 277 18.2 101360 53
2011-08-03 06:25:43 51°27.517 2°47.803 5.8 350 18.1 101360 52
2011-08-03 06:25:48 51°27.535 2°47.798 6.1 349 18.1 101360 52
2011-08-03 06:25:53 51°27.553 2°47.792 5.8 351 18.2 101360 50
2011-08-03 06:25:59 51°27.574 2°47.785 6.4 351 18.2 101360 50
2011-08-03 06:26:03 51°27.589 2°47.78 5.5 351 18.2 101360 53
2011-08-03 06:26:08 51°27.606 2°47.774 6.1 350 18.2 101360 53
2011-08-03 06:26:13 51°27.624 2°47.767 6.3 352 18.1 101360 52
2011-08-03 06:26:19 51°27.646 2°47.759 5.4 351 18.1 101360 52
2011-08-03 06:26:23 51°27.66 2°47.753 6.2 352 18.1 101360 52
2011-08-03 06:26:28 51°27.678 2°47.746 6.1 350 18.1 101360 52
2011-08-03 06:26:34 51°27.699 2°47.738 6 350 18.2 101370 53
2011-08-03 06:26:39 51°27.717 2°47.73 5.9 350 18.2 101370 53
2011-08-03 06:26:43 51°27.731 2°47.725 6.7 349 18.1 101360 52
2011-08-03 06:26:48 51°27.749 2°47.718 5.7 349 18.1 101360 52
2011-08-03 06:26:54 51°27.77 2°47.71 5.7 348 18.1 101360 51
2011-08-03 06:26:59 51°27.788 2°47.703 5.5 349 18.1 101360 51
2011-08-03 06:27:03 51°27.802 2°47.698 4.4 350 18.1 101360 53
2011-08-03 06:27:08 51°27.82 2°47.692 5.5 348 18.1 101360 53
2011-08-03 06:27:14 51°27.841 2°47.685 6.5 349 18.2 101370 53
2011-08-03 06:27:19 51°27.859 2°47.679 5.5 350 18.2 101370 53
2011-08-03 06:27:23 51°27.873 2°47.675 3.3 350 18.2 101370 52
2011-08-03 06:27:28 51°27.891 2°47.669 6.1 350 18.2 101370 52
2011-08-03 06:27:34 51°27.913 2°47.663 6.5 350 18.1 101370 53
2011-08-03 06:27:39 51°27.931 2°47.657 6.9 278 18.1 101370 53
2011-08-03 06:27:43 51°27.945 2°47.652 6.3 350 18.1 101370 52
2011-08-03 06:27:48 51°27.963 2°47.646 5.4 351 18.1 101370 52
2011-08-03 06:27:54 51°27.984 2°47.639 5.5 348 18.1 101370 53
2011-08-03 06:27:59 51°28.002 2°47.632 5.7 349 18.1 101370 53
2011-08-03 06:28:03 51°28.016 2°47.627 5.5 350 18.1 101360 52
2011-08-03 06:28:08 51°28.034 2°47.619 5.3 350 18.1 101360 52
2011-08-03 06:28:14 51°28.055 2°47.61 5.3 350 18.1 101370 52
2011-08-03 06:28:19 51°28.073 2°47.602 4.9 349 18.1 101370 52
2011-08-03 06:28:23 51°28.087 2°47.595 5.9 350 18.1 101370 52
2011-08-03 06:28:28 51°28.104 2°47.587 6.1 350 18.1 101370 52
2011-08-03 06:28:34 51°28.125 2°47.577 5.8 350 18.1 101370 50
2011-08-03 06:28:39 51°28.143 2°47.57 5.2 348 18.1 101370 50
2011-08-03 06:28:43 51°28.157 2°47.564 5.4 349 18.1 101370 52
2011-08-03 06:28:49 51°28.178 2°47.554 5.5 347 18.1 101370 52
2011-08-03 06:28:54 51°28.196 2°47.547 6.1 349 18.1 101370 52
2011-08-03 06:28:59 51°28.214 2°47.539 5.8 349 18.1 101370 52
2011-08-03 06:29:03 51°28.228 2°47.534 6.2 350 18.2 101370 52
2011-08-03 06:29:08 51°28.246 2°47.527 5.9 349 18.2 101370 52
2011-08-03 06:29:14 51°28.267 2°47.519 6.4 351 18.1 101370 52
2011-08-03 06:29:19 51°28.285 2°47.512 5.7 350 18.1 101370 52
2011-08-03 06:29:23 51°28.299 2°47.507 6.7 349 18.2 101370 53
2011-08-03 06:29:28 51°28.317 2°47.501 5.7 349 18.2 101370 53
2011-08-03 06:29:34 51°28.339 2°47.494 5.7 350 18.2 101370 51
2011-08-03 06:29:39 51°28.357 2°47.488 6.6 350 18.2 101370 51
2011-08-03 06:29:43 51°28.372 2°47.484 6.1 351 18.1 101360 51
2011-08-03 06:29:48 51°28.39 2°47.479 6.2 351 18.1 101360 51
2011-08-03 06:29:53 51°28.408 2°47.474 5.4 351 18.1 101360 51
2011-08-03 06:29:59 51°28.43 2°47.468 5.9 351 18.1 101360 51
2011-08-03 06:30:03 51°28.444 2°47.464 6.3 350 18.1 101370 51
2011-08-03 06:30:08 51°28.462 2°47.458 5.8 352 18.1 101370 51
2011-08-03 06:30:13 51°28.48 2°47.452 6.8 349 18.2 101370 52
2011-08-03 06:30:19 51°28.502 2°47.444 6.4 349 18.2 101370 52
2011-08-03 06:30:23 51°28.516 2°47.438 5.8 348 18.2 101360 53
2011-08-03 06:30:28 51°28.534 2°47.43 5.9 350 18.2 101360 53
2011-08-03 06:30:33 51°28.552 2°47.422 6.4 349 18.2 101360 52
2011-08-03 06:30:39 51°28.573 2°47.412 5.6 348 18.2 101360 52
2011-08-03 06:30:43 51°28.587 2°47.405 6.6 351 18.2 101360 51
2011-08-03 06:30:47 51°28.601 2°47.399 5.6 348 18.2 101360 51
2011-08-03 06:30:54 51°28.626 2°47.388 6.2 348 18.2 101370 51
2011-08-03 06:30:59 51°28.644 2°47.38 6.3 348 18.2 101370 51
2011-08-03 06:31:03 51°28.658 2°47.374 6.7 350 18.2 101370 51
2011-08-03 06:31:08 51°28.676 2°47.367 6 350 18.2 101370 51
2011-08-03 06:31:14 51°28.698 2°47.358 7.2 351 18.2 101370 51
2011-08-03 06:31:19 51°28.716 2°47.351 7.4 350 18.2 101370 51
2011-08-03 06:31:23 51°28.73 2°47.347 6.2 351 18.2 101370 51
2011-08-03 06:31:28 51°28.748 2°47.341 7.1 348 18.2 101370 51
2011-08-03 06:31:34 51°28.77 2°47.334 6.6 350 18.2 101370 52
2011-08-03 06:31:39 51°28.788 2°47.329 6 278 18.2 101370 52
2011-08-03 06:31:43 51°28.803 2°47.325 6.5 351 18.2 101370 51
2011-08-03 06:31:48 51°28.821 2°47.32 6.1 349 18.2 101370 51
2011-08-03 06:31:53 51°28.839 2°47.315 7.7 350 18.2 101370 53
2011-08-03 06:31:59 51°28.861 2°47.309 6.2 350 18.2 101370 53
2011-08-03 06:32:03 51°28.875 2°47.305 7.1 350 18.2 101360 52
2011-08-03 06:32:08 51°28.893 2°47.299 7 351 18.2 101360 52
2011-08-03 06:32:13 51°28.911 2°47.293 6.3 350 18.2 101360 52
2011-08-03 06:32:19 51°28.933 2°47.285 6.2 351 18.2 101360 52
2011-08-03 06:32:23 51°28.947 2°47.279 6.6 352 18.2 101360 51
2011-08-03 06:32:28 51°28.965 2°47.271 5.5 351 18.2 101360 51
2011-08-03 06:32:33 51°28.983 2°47.263 6.5 351 18.2 101360 51
2011-08-03 06:32:39 51°29.004 2°47.254 5.8 277 18.2 101360 51